Вернуться в каталог

STARLINK-5833

АктивенСвязьVLEO
NORAD 55773·PAYLOAD·🇺🇸 United States

Запущен Mar 3, 2023 с Vandenberg Space Force Base

Loading…

Ближайшие Пролёты (ближайшие 24 часа)

TLE

СвежийSource: CelesTrak SupGP

Эпоха: Sep 15, 2026, 02:18 UTC

1 55773C 23028AJ  26258.09631944 -.00020271  00000+0 -16983-2 0  2581
2 55773  69.9997 106.9767 0003114 273.5120  40.0916 14.98351192    17

Отслеживайте STARLINK-5833 в реальном времени с AllMySat

Download on the App Store